EHI
4 2 1 0 0 0 0 0 0 0 0 0 0 0 0 0 0 0 0 0 0 0 0 0 0 0 0 0 1 0 0 0 0 0 0 1 2 2 1 0 0 0 0 0 0 0 0 0 0
1 1 0 0 0 0 0 0 0 0 0 0 0 0 0 0 0 0 0 0 0 0 0 0 0 0 0 1 1 1 0 0 0 0 0 0 1 1 0 0 0 0 0 0 0 0 0 0 0
0 0 0 0 0 0 0 0 0 1 1 0 0 0 0 0 0 0 0 0 0 0 0 1 1 1 0 1 1 1 0 0 0 0 0 0 0 0 0 0 0 0 0 1 1 1 0 0 0
0 0 0 0 0 0 0 0 1 2 2 1 0 0 0 0 0 0 0 0 0 0 0 1 1 1 0 0 0 0 0 0 0 0 0 0 0 0 0 0 0 0 0 1 1 1 0 0 0
0 0 0 0 0 0 0 0 2 3 3 2 1 0 0 0 0 0 0 0 0 0 0 0 0 0 0 0 0 0 0 0 0 0 0 0 0 0 0 0 0 0 0 0 0 0 0 0 0
0 0 0 0 0 0 0 0 2 3 3 3 2 1 0 0 0 0 0 0 0 0 0 0 0 0 0 0 0 0 0 0 0 0 0 0 0 0 0 0 0 0 0 0 0 0 0 0 0
0 0 0 0 0 0 0 0 1 2 3 3 3 2 1 1 1 1 0 0 0 0 0 0 0 0 0 0 0 0 0 0 0 0 0 0 0 0 0 0 0 0 0 0 0 0 0 0 0
0 0 0 0 0 0 0 0 1 1 2 2 3 3 2 2 2 1 0 0 0 0 0 0 0 0 0 0 0 0 0 1 0 0 0 0 0 0 0 0 0 0 0 0 0 0 0 0 0
0 0 0 0 0 0 0 0 1 2 2 1 1 2 2 2 2 1 0 0 0 0 0 0 0 0 0 0 0 0 0 0 0 0 0 0 0 0 0 0 0 0 0 0 0 1 1 0 0
0 0 0 0 0 0 0 1 1 2 1 1 0 2 4 3 2 1 0 0 0 0 0 0 1 1 1 1 1 0 0 0 0 0 0 0 0 0 0 0 0 0 0 0 0 1 1 0 0
0 0 0 0 0 0 0 1 1 1 0 0 0 2 6 5 2 0 0 0 0 0 0 0 1 2 2 2 1 0 0 0 0 0 0 0 0 0 0 0 0 0 0 0 0 0 0 0 0
0 0 0 0 0 0 0 0 0 0 0 0 0 3 6 5 2 0 0 0 0 0 0 0 1 1 1 1 1 0 0 0 0 0 0 0 0 0 0 0 0 0 0 0 0 0 0 0 0
0 0 0 0 0 0 0 0 0 0 1 2 2 3 5 4 1 0 0 0 0 0 0 0 0 0 1 1 0 0 0 0 0 0 0 0 0 0 0 0 0 0 0 0 0 0 0 0 0
0 0 0 0 0 0 0 0 0 1 2 4 4 3 3 2 0 0 0 0 0 0 0 0 0 0 1 2 1 0 0 0 0 0 0 0 0 0 0 0 0 0 0 0 0 0 0 0 0
0 0 0 0 0 0 0 0 0 1 2 2 3 3 2 0 0 0 0 0 0 0 0 0 0 1 2 2 1 0 0 0 0 0 0 0 0 0 0 0 0 0 0 0 0 0 0 0 0
0 0 0 0 0 0 0 0 0 1 1 1 2 3 2 1 0 0 0 0 0 0 0 0 1 2 3 3 2 1 0 0 0 0 0 0 0 0 0 0 0 0 0 0 0 0 0 0 0
0 0 0 0 0 0 0 0 0 0 0 1 2 4 4 2 0 0 0 0 0 0 1 1 2 3 3 3 3 2 1 0 0 0 0 0 0 0 0 0 0 0 0 0 0 0 0 0 0
0 0 0 0 0 0 0 0 0 0 0 1 2 5 7 5 2 2 2 3 2 2 3 3 4 4 3 3 3 3 2 1 0 0 0 0 0 0 0 0 0 0 0 0 0 0 0 0 0
0 0 0 0 0 0 0 0 0 0 0 1 3 6 9 8 5 5 8 7 6 6 6 6 6 5 4 3 3 3 2 1 0 0 0 0 0 0 0 0 0 0 0 0 0 0 0 0 0
0 0 0 0 0 0 0 0 0 1 1 2 4 7 10 11 9 9 11 11 10 9 8 7 8 7 5 3 3 1 1 1 0 0 0 0 0 0 0 0 0 0 0 0 0 0 0 0 0
0 0 0 0 0 0 0 0 0 1 3 4 4 7 11 12 11 11 12 12 12 12 10 9 9 8 6 4 3 1 0 0 0 0 0 0 0 0 0 0 0 0 0 0 0 0 0 0 0
0 0 0 0 0 0 0 0 0 1 2 3 4 6 9 11 11 12 13 14 14 15 13 11 9 8 7 5 3 1 0 0 0 0 0 0 0 0 0 0 0 0 0 0 0 0 0 0 0
0 0 0 0 0 0 0 0 0 0 1 3 4 6 9 10 11 12 14 15 16 17 15 12 9 8 7 5 3 2 1 0 0 0 0 0 0 0 0 0 0 0 0 0 0 0 0 0 0
0 0 0 0 0 0 0 0 0 0 1 4 7 9 10 11 12 13 14 15 17 17 14 12 9 7 6 5 4 3 2 1 1 0 0 0 0 0 0 0 0 0 0 0 0 0 0 0 0
0 0 0 0 0 0 0 0 0 0 2 6 10 12 12 12 13 14 14 16 18 18 14 11 8 5 5 4 4 3 3 3 2 1 0 0 0 0 0 0 0 0 0 0 0 0 0 0 0
0 0 0 0 0 0 0 0 0 1 3 7 12 14 13 12 13 16 16 17 19 20 17 13 9 5 4 5 4 3 3 3 3 2 1 0 0 0 0 0 0 0 0 0 0 0 0 0 0
0 0 0 0 0 0 0 0 0 2 4 8 14 15 14 12 13 16 19 19 20 21 20 17 12 8 7 6 4 3 3 3 3 3 2 1 0 0 0 0 0 0 0 0 0 0 0 0 0
0 0 0 0 0 0 0 0 0 1 3 8 12 15 15 14 14 16 19 20 19 18 19 20 18 13 9 7 5 4 3 3 3 3 3 2 1 0 1 1 0 0 0 0 0 0 0 0 0
0 0 0 0 0 0 0 0 0 1 3 7 10 12 14 15 15 16 18 18 15 15 17 21 21 16 12 9 7 5 4 4 3 3 3 2 1 0 1 1 0 0 0 0 0 0 0 0 1
0 0 0 0 0 0 0 0 0 1 4 7 8 9 11 12 14 16 17 17 14 14 17 22 22 17 14 12 9 7 6 5 4 3 3 1 0 0 0 1 0 0 1 1 1 0 0 1 1
Wind_Speed
6 6 3 2 6 7 4 4 2 3 4 4 6 8 7 5 3 4 1 4 5 3 2 5 7 9 9 10 11 12 12 12 13 14 14 14 15 15 16 16 16 16 17 17 17 17 17 16 16
4 4 2 4 7 5 3 3 4 4 5 5 6 6 7 5 3 5 3 3 5 4 2 4 8 8 9 9 10 11 12 12 12 13 13 14 14 14 15 15 16 16 16 16 16 16 16 15 15
4 2 4 5 5 4 3 1 5 6 4 3 4 5 5 3 4 4 3 6 5 3 2 3 8 8 9 9 10 10 11 11 12 12 12 13 13 14 14 14 15 15 15 15 15 15 14 14 14
3 3 5 7 5 1 4 4 6 6 5 5 5 6 4 3 4 4 7 7 5 3 2 3 8 8 8 9 9 9 10 10 11 11 11 11 12 12 13 13 13 14 14 14 14 14 13 13 13
3 5 7 5 3 3 4 5 3 4 4 5 5 5 4 4 7 9 8 6 5 3 2 3 8 8 8 8 8 9 9 10 10 10 10 10 10 11 11 12 12 12 13 13 13 12 12 12 11
5 6 6 3 3 4 3 3 5 7 7 5 5 4 3 3 7 7 6 5 4 3 2 2 6 7 7 7 8 8 8 9 9 9 9 9 9 9 9 10 10 11 11 11 11 11 10 10 10
5 5 4 3 3 2 3 3 4 6 6 4 4 5 2 2 4 6 6 5 4 3 2 2 2 3 5 6 7 7 7 7 7 8 8 8 8 8 8 8 9 9 9 9 9 9 9 9 8
5 6 4 2 4 3 4 3 4 6 5 5 4 6 5 4 7 7 6 5 3 2 2 2 2 2 2 2 5 6 6 6 6 6 7 7 7 6 6 6 6 7 7 7 7 7 8 8 7
4 6 3 4 5 4 5 5 3 3 5 3 3 4 6 12 10 7 5 3 2 2 1 1 1 1 1 1 2 3 4 4 4 4 5 5 3 3 3 3 4 5 5 5 6 6 6 6 6
5 4 5 4 6 6 6 6 6 5 4 3 6 7 11 12 10 8 6 6 5 4 2 1 1 1 1 0 2 2 2 2 2 2 3 2 2 2 2 2 3 4 4 4 4 5 5 5 3
4 5 3 3 5 8 7 5 4 8 4 6 10 12 13 11 9 8 7 6 5 4 3 3 2 2 1 0 1 1 1 1 1 1 1 1 1 2 2 2 2 2 3 2 3 3 2 2 2
4 2 4 5 5 6 7 6 4 4 5 7 12 14 13 12 10 9 8 6 4 4 4 3 3 2 2 1 1 1 1 1 0 0 1 1 1 1 1 1 1 1 1 1 1 1 2 2 2
4 3 4 6 7 6 6 5 4 2 5 10 11 12 11 11 8 7 5 5 5 5 5 4 4 3 2 2 1 1 1 1 1 0 1 1 1 0 0 0 0 0 0 1 1 1 1 1 1
3 6 6 6 6 4 6 3 3 3 8 10 11 10 10 10 8 6 6 6 6 6 5 4 4 4 3 2 2 1 1 1 1 1 1 2 2 1 1 0 0 1 0 0 0 0 0 0 0
6 9 7 3 3 3 6 2 1 5 9 9 9 9 8 8 7 8 8 7 7 6 5 5 5 4 3 3 2 1 1 1 1 1 1 2 2 2 2 1 1 1 1 1 0 0 0 0 0
6 6 3 1 3 3 5 3 3 7 10 9 8 8 7 7 7 7 7 6 6 5 5 5 5 5 4 3 2 1 1 1 1 1 1 2 2 2 2 1 1 1 0 1 1 0 0 0 0
4 3 2 2 3 4 4 4 4 7 9 8 8 8 7 6 6 5 6 6 6 6 5 4 4 5 4 3 2 1 1 1 1 1 1 1 2 3 2 2 1 1 0 1 1 1 1 0 0
4 4 3 4 4 5 4 4 4 7 9 9 8 7 7 8 8 6 6 5 5 5 4 4 3 4 3 2 2 1 1 0 0 1 1 1 1 2 2 1 1 1 1 0 1 1 1 1 0
6 5 3 4 3 5 4 4 5 8 7 8 8 8 8 8 5 4 5 5 5 4 4 4 4 3 3 2 2 1 1 0 0 1 1 1 2 2 2 1 1 1 1 1 1 1 1 1 1
5 4 2 0 2 4 2 2 4 8 10 10 10 10 9 7 5 5 5 5 6 5 5 4 4 4 3 2 2 2 2 1 1 0 0 1 1 1 2 2 1 1 1 1 1 1 1 1 1
2 6 5 3 3 4 3 3 2 4 5 5 7 8 9 10 9 8 7 6 6 7 7 6 5 4 3 3 2 2 2 1 1 1 1 1 0 1 1 1 1 1 1 1 2 2 2 2 1
3 4 5 5 5 0 2 2 6 4 5 7 9 9 10 10 9 8 8 8 8 8 6 5 5 4 3 4 3 3 2 2 1 1 0 1 1 0 0 1 1 1 1 1 2 2 2 2 2
4 3 5 5 5 3 2 1 8 1 5 10 11 11 11 11 11 10 10 9 8 7 6 5 4 4 3 3 4 3 2 2 1 1 0 1 1 1 0 0 0 0 1 1 1 1 2 2 2
7 8 8 6 5 1 3 3 7 5 9 8 10 12 11 10 10 9 8 7 6 5 5 4 4 4 3 4 4 4 4 3 2 1 1 0 1 1 1 0 0 0 0 0 1 1 1 1 2
6 7 5 5 4 5 2 3 10 8 8 9 9 11 10 9 9 9 8 8 7 7 6 5 5 4 4 4 4 4 4 4 3 3 2 1 0 1 1 1 0 0 0 1 1 1 1 1 1
5 9 9 6 5 4 1 6 9 6 6 6 6 7 8 9 9 10 11 10 9 9 8 7 6 5 4 4 3 3 3 2 2 2 2 2 1 0 0 1 1 1 1 1 1 1 1 1 1
7 3 6 8 3 1 5 7 10 3 2 2 5 7 9 10 10 11 10 10 10 9 9 8 7 6 5 4 4 3 3 3 3 2 2 1 1 1 2 2 2 2 2 2 2 2 1 2 1
6 9 6 7 6 2 5 5 6 5 4 3 5 7 8 8 9 9 10 10 9 9 7 7 7 7 5 5 4 3 3 3 2 2 2 2 2 2 3 3 3 3 3 3 3 2 2 3 2
5 5 6 5 6 7 3 8 8 8 7 7 8 8 9 10 10 10 9 9 8 7 7 7 7 6 5 5 4 4 3 3 3 2 2 2 2 3 3 3 3 3 3 3 3 3 3 3 3
5 7 8 6 4 5 4 10 6 6 6 6 6 6 6 7 7 8 8 8 8 8 8 8 7 7 6 5 5 4 4 3 3 3 2 3 3 3 3 3 3 3 3 3 4 3 3 3 3
Wind_Direction
148 140 138 92 56 51 38 16 70 76 51 46 73 79 82 64 84 129 149 130 123 113 94 103 99 93 89 86 86 88 87 86 87 90 92 92 92 92 92 93 94 95 97 99 100 101 102 103 105
146 145 92 61 73 63 16 7 77 82 129 121 80 75 71 65 66 107 126 136 120 117 101 111 106 98 93 89 89 90 91 90 89 90 91 93 92 93 93 93 94 94 96 98 98 100 102 104 106
153 125 79 68 78 116 129 120 115 113 110 82 77 65 75 99 122 142 153 131 114 111 103 125 111 104 98 93 91 92 93 94 92 92 90 90 92 93 95 96 96 96 97 99 97 99 101 104 106
121 58 54 66 71 111 143 155 135 119 70 53 81 67 65 92 134 136 128 124 116 107 101 128 116 109 103 98 96 96 96 96 95 95 93 92 91 92 96 97 97 98 97 98 98 98 100 102 105
71 74 61 53 48 64 108 142 128 98 77 66 78 80 51 35 97 113 121 122 123 115 105 125 119 114 108 104 100 99 99 98 98 97 95 94 94 92 94 97 98 100 99 98 97 98 99 101 102
59 67 78 79 76 79 95 97 92 90 92 85 81 86 51 85 108 120 117 114 119 120 104 107 121 119 115 110 106 103 101 101 100 100 98 96 95 94 94 97 100 101 100 99 99 99 98 102 103
97 86 107 120 107 109 131 102 107 114 108 105 105 92 81 119 120 117 108 105 103 99 88 67 82 105 117 117 111 109 107 104 103 104 104 103 100 98 97 95 98 100 99 100 101 99 97 101 105
118 94 86 109 133 144 135 107 111 119 109 124 118 130 167 171 128 109 99 98 98 93 83 75 66 61 64 89 119 116 113 110 105 106 105 102 98 97 97 94 98 99 98 99 98 97 96 100 106
90 80 139 175 163 154 143 128 131 101 115 125 102 135 150 136 128 119 113 113 137 155 123 108 92 76 61 56 119 106 108 102 97 95 99 83 55 54 69 90 98 99 98 96 90 90 93 93 97
85 118 197 187 164 146 145 140 139 116 118 92 81 93 122 137 145 151 161 169 181 191 196 184 167 152 122 121 75 46 53 61 61 56 60 61 53 36 57 50 79 88 90 91 86 82 82 78 72
106 151 172 130 135 130 133 134 125 129 161 172 151 145 146 150 158 170 179 183 191 194 197 189 191 188 178 108 107 71 55 56 53 57 65 68 54 35 38 31 29 39 53 50 54 56 62 74 81
99 112 124 130 123 128 139 135 125 163 192 163 152 150 153 162 174 182 185 189 182 185 201 196 189 191 197 181 149 128 114 104 89 44 102 104 78 39 33 33 16 28 43 52 51 55 60 74 96
85 96 82 104 106 111 109 115 130 143 125 128 138 148 161 172 182 190 189 183 178 191 200 194 186 188 190 179 191 165 180 177 183 199 192 167 161 188 358 7 349 345 50 76 61 51 53 58 93
96 86 85 89 94 107 114 99 100 156 133 136 148 161 172 179 181 177 181 188 193 198 198 190 190 191 185 180 190 197 193 185 178 211 210 184 179 188 190 243 298 298 270 191 170 176 16 334 129
85 80 61 59 91 119 108 72 198 159 141 151 164 170 176 185 183 188 191 191 195 196 191 189 192 186 185 186 195 202 204 186 196 217 211 194 187 190 190 201 234 255 252 234 204 220 41 270 166
61 73 90 253 131 133 123 212 218 157 154 168 177 178 183 193 197 197 191 190 188 182 185 195 192 177 180 177 184 188 187 184 205 205 204 205 197 192 181 197 237 247 216 192 204 172 65 340 350
49 120 185 227 180 149 151 216 209 166 168 180 186 189 189 196 207 202 192 188 181 177 178 183 181 169 172 169 169 166 155 171 208 203 208 213 197 186 178 201 227 202 174 217 229 159 169 228 257
179 169 194 209 197 153 176 222 190 178 181 190 193 195 195 200 209 197 187 180 172 169 171 174 167 162 152 137 116 87 78 100 216 214 223 219 206 187 177 194 209 168 162 228 212 184 163 184 202
153 156 195 229 182 154 190 215 201 189 192 196 198 198 203 212 209 185 176 166 157 162 174 179 169 165 146 134 141 144 177 215 234 240 232 219 211 190 176 190 184 172 191 214 194 166 155 163 131
135 144 173 22 137 143 175 241 222 198 204 202 199 200 201 205 197 185 175 170 172 178 189 191 189 180 172 158 156 156 151 170 187 230 282 221 203 196 189 184 197 189 186 191 174 161 156 185 152
163 172 177 160 91 60 88 329 248 229 217 215 212 204 200 200 197 192 185 185 182 189 196 198 195 188 179 161 126 98 74 53 51 27 326 317 224 181 175 187 197 210 194 209 207 189 181 194 202
210 202 158 138 118 21 117 262 277 228 225 223 218 207 205 204 196 191 188 189 193 198 194 192 186 181 175 164 161 162 168 180 204 197 223 348 358 328 155 196 205 211 207 222 227 194 190 184 207
176 112 111 119 116 74 39 161 285 213 232 233 221 211 207 200 195 192 194 195 193 187 182 182 171 172 169 165 165 160 162 171 149 111 58 1 359 356 327 191 197 213 213 208 201 176 180 189 192
119 77 58 52 70 69 230 172 273 232 221 229 216 208 203 195 193 192 188 180 178 172 170 167 165 176 172 165 160 162 165 165 155 157 168 310 350 349 348 30 90 127 170 201 195 174 171 182 179
96 93 49 17 17 252 246 200 249 246 229 219 210 204 196 185 181 182 178 181 179 176 176 172 171 180 174 163 166 174 174 173 181 185 183 184 300 333 324 358 64 65 105 101 114 130 152 164 164
157 135 151 176 207 264 291 235 254 261 259 230 204 188 177 176 176 186 189 185 183 182 179 173 173 176 170 166 170 165 162 164 174 176 165 171 186 242 330 71 68 62 69 83 87 90 97 98 127
132 148 152 127 144 202 275 283 299 305 312 192 174 170 176 180 183 188 187 184 182 182 182 176 172 172 174 172 161 155 154 152 155 156 148 145 140 114 78 76 65 59 63 67 75 75 67 77 78
132 141 106 116 139 222 288 278 257 270 249 218 191 190 189 181 181 185 186 184 182 183 179 170 171 175 173 165 162 157 152 151 145 131 127 121 106 92 85 74 69 65 63 65 73 69 61 72 59
106 94 102 109 144 153 225 267 231 224 222 212 212 204 190 185 184 186 186 180 175 170 166 166 166 161 160 161 156 149 145 142 131 126 126 117 103 101 95 82 72 71 68 67 74 66 63 71 56
147 154 145 146 185 164 170 262 266 230 228 216 221 211 193 185 181 182 178 167 166 168 169 170 167 166 168 161 153 151 143 137 131 130 124 113 104 93 95 94 82 71 68 68 74 72 67 68 61